LEMUR-2-ZUPANSKI (43695 NORAD) Tracking and Keplerian Element Data

This shows tracking and keplerian element data for the satellite.

Feedback or suggestion? Click here.




ElementValue
Catalog43695
NameLEMUR-2-ZUPANSKI
Epoch Orbit433
Epoch Day343.83288154
Epoch Year2018
RAAN84.0786
Inclination85.0339
Eccentricity0.0017987
Argument of Perigee178.1675
Mean Anonmoly181.9635
Mean Motion15.19681184
Decay Rate1.998E-05
L11 43695U 18088F 18343.83288154 .00001998 00000-0 91460-4 0 9991
L22 43695 85.0339 84.0786 0017987 178.1675 181.9635 15.19681184 4334

Live tracking and technical data element details for LEMUR-2-ZUPANSKI (NORAD 43695). LEMUR-2-ZUPANSKI can be tracked NOW for your location showing map with azimuth and elevation plus other details from your city location.

Track the satellite on the map from your city or location and see movement details for azimuth, elevation, latitude, longitude, range, height, and movement on the map or in text.







IsCatalogInMostPopularTable: catalog: 43695, numindb: 20
Update: records affected: 1



GetName: 43695 LEMUR-2-ZUPANSKI

Hit Count: updated at: Tue, 11 Dec 2018 03:24:11 GMT